When you browse on this site, cookies collect data to enhance your experience and personalize the content and advertising you see.
Visit our Privacy Policy to learn more. By continuing to use the site, you agree to this use of cookies and data.
  • In Österreich
  • Länderverzeichnis
  • Für 7 Tage
  • Wassertemperatur
  • Satellitenkarten
  • Wetterkarte
  • News
  • Widgets
  • user-avatar
    Anmelden

    Stündliche Wetter Springville

    Heute, 21 Juli, Sonntag

    Zeit Temperatur Niederschläge Wind Luftdruck Luftfeuchtigkeit
    00:00 +22°C° 0 mm 1 m/S 639 mmHg 33%
    01:00 +22°C° 0 mm 1 m/S 639 mmHg 34%
    02:00 +21°C° 0 mm 1 m/S 639 mmHg 36%
    03:00 +21°C° 0 mm 1 m/S 639 mmHg 36%
    04:00 +21°C° 0 mm 1 m/S 639 mmHg 36%
    05:00 +20°C° 0 mm 2 m/S 639 mmHg 36%
    06:00 +24°C° 0 mm 1 m/S 640 mmHg 31%
    07:00 +27°C° 0 mm 1 m/S 641 mmHg 26%
    08:00 +28°C° 0 mm 0 m/S 642 mmHg 20%
    09:00 +32°C° 0 mm 1 m/S 643 mmHg 18%
    10:00 +34°C° 0 mm 1 m/S 644 mmHg 15%
    11:00 +36°C° 0 mm 1 m/S 644 mmHg 13%
    12:00 +38°C° 0 mm 2 m/S 644 mmHg 12%
    13:00 +38°C° 0 mm 2 m/S 644 mmHg 11%
    14:00 +39°C° 0 mm 3 m/S 644 mmHg 10%
    15:00 +39°C° 0 mm 3 m/S 644 mmHg 10%
    16:00 +38°C° 0 mm 3 m/S 643 mmHg 11%
    17:00 +38°C° 0 mm 3 m/S 643 mmHg 11%
    18:00 +35°C° 0 mm 2 m/S 642 mmHg 15%
    19:00 +30°C° 0 mm 2 m/S 641 mmHg 20%
    20:00 +26°C° 0 mm 1 m/S 641 mmHg 24%
    21:00 +25°C° 0 mm 1 m/S 641 mmHg 27%
    22:00 +24°C° 0 mm 2 m/S 641 mmHg 30%
    23:00 +23°C° 0 mm 2 m/S 641 mmHg 32%

    Morgen, 22 Juli, Montag

    Zeit Temperatur Niederschläge Wind Luftdruck Luftfeuchtigkeit
    00:00 +23°C° 0 mm 2 m/S 641 mmHg 31%
    01:00 +23°C° 0 mm 2 m/S 641 mmHg 30%
    02:00 +21°C° 0 mm 2 m/S 641 mmHg 30%
    03:00 +21°C° 0 mm 2 m/S 641 mmHg 30%
    04:00 +21°C° 0 mm 1 m/S 641 mmHg 30%
    05:00 +21°C° 0 mm 1 m/S 641 mmHg 31%
    06:00 +24°C° 0 mm 1 m/S 642 mmHg 26%
    07:00 +28°C° 0 mm 1 m/S 643 mmHg 21%
    08:00 +29°C° 0 mm 0 m/S 644 mmHg 16%
    09:00 +33°C° 0 mm 1 m/S 645 mmHg 14%
    10:00 +35°C° 0 mm 1 m/S 645 mmHg 12%
    11:00 +38°C° 0 mm 2 m/S 646 mmHg 10%
    12:00 +39°C° 0 mm 2 m/S 646 mmHg 10%
    13:00 +39°C° 0 mm 3 m/S 646 mmHg 9%
    14:00 +40°C° 0 mm 3 m/S 645 mmHg 9%
    15:00 +40°C° 0 mm 3 m/S 645 mmHg 9%
    16:00 +39°C° 0 mm 3 m/S 645 mmHg 9%
    17:00 +39°C° 0 mm 3 m/S 644 mmHg 9%
    18:00 +36°C° 0 mm 3 m/S 643 mmHg 12%
    19:00 +31°C° 0 mm 2 m/S 642 mmHg 15%
    20:00 +28°C° 0 mm 1 m/S 641 mmHg 18%
    21:00 +27°C° 0 mm 2 m/S 641 mmHg 21%
    22:00 +26°C° 0 mm 2 m/S 641 mmHg 24%
    23:00 +25°C° 0 mm 2 m/S 641 mmHg 27%

    übermorgen, 23 Juli, Dienstag

    Zeit Temperatur Niederschläge Wind Luftdruck Luftfeuchtigkeit
    00:00 +25°C° 0 mm 2 m/S 642 mmHg 27%
    01:00 +24°C° 0 mm 2 m/S 642 mmHg 27%
    02:00 +24°C° 0 mm 2 m/S 642 mmHg 27%
    03:00 +24°C° 0 mm 1 m/S 642 mmHg 28%
    04:00 +23°C° 0 mm 1 m/S 642 mmHg 29%
    05:00 +23°C° 0 mm 1 m/S 642 mmHg 30%
    06:00 +26°C° 0 mm 1 m/S 643 mmHg 27%
    07:00 +29°C° 0 mm 1 m/S 644 mmHg 24%
    08:00 +31°C° 0 mm 1 m/S 645 mmHg 21%
    09:00 +33°C° 0 mm 1 m/S 646 mmHg 19%
    10:00 +36°C° 0 mm 2 m/S 646 mmHg 16%
    11:00 +38°C° 0 mm 2 m/S 646 mmHg 14%
    12:00 +38°C° 0 mm 2 m/S 646 mmHg 14%
    13:00 +39°C° 0 mm 3 m/S 646 mmHg 13%
    14:00 +39°C° 0 mm 3 m/S 645 mmHg 13%
    15:00 +40°C° 0 mm 4 m/S 645 mmHg 14%
    16:00 +38°C° 0 mm 4 m/S 644 mmHg 14%
    17:00 +38°C° 0 mm 4 m/S 644 mmHg 15%
    18:00 +35°C° 0 mm 3 m/S 643 mmHg 20%
    19:00 +31°C° 0 mm 2 m/S 643 mmHg 24%
    20:00 +29°C° 0 mm 1 m/S 642 mmHg 28%
    21:00 +27°C° 0.1 mm 2 m/S 642 mmHg 34%
    22:00 +26°C° 0.1 mm 2 m/S 642 mmHg 40%
    23:00 +25°C° 0.1 mm 2 m/S 642 mmHg 46%

    24 Juli, Mittwoch

    Zeit Temperatur Niederschläge Wind Luftdruck Luftfeuchtigkeit
    00:00 +24°C° 0 mm 2 m/S 642 mmHg 48%
    01:00 +24°C° 0 mm 1 m/S 642 mmHg 49%
    02:00 +23°C° 0 mm 1 m/S 642 mmHg 50%
    03:00 +23°C° 0 mm 1 m/S 642 mmHg 50%
    04:00 +23°C° 0 mm 1 m/S 642 mmHg 50%
    05:00 +23°C° 0 mm 1 m/S 642 mmHg 50%
    06:00 +25°C° 0 mm 1 m/S 642 mmHg 46%
    07:00 +27°C° 0 mm 1 m/S 643 mmHg 41%
    08:00 +29°C° 0 mm 1 m/S 644 mmHg 36%
    09:00 +31°C° 0 mm 2 m/S 644 mmHg 32%
    10:00 +32°C° 0 mm 2 m/S 644 mmHg 29%
    11:00 +35°C° 0 mm 3 m/S 645 mmHg 26%
    12:00 +35°C° 0 mm 3 m/S 644 mmHg 25%
    13:00 +35°C° 0 mm 3 m/S 644 mmHg 25%
    14:00 +36°C° 0 mm 3 m/S 644 mmHg 24%
    15:00 +36°C° 0 mm 3 m/S 643 mmHg 24%
    16:00 +36°C° 0 mm 3 m/S 643 mmHg 23%
    17:00 +36°C° 0 mm 3 m/S 642 mmHg 23%
    18:00 +33°C° 0 mm 3 m/S 642 mmHg 29%
    19:00 +30°C° 0 mm 4 m/S 641 mmHg 35%
    20:00 +27°C° 0 mm 4 m/S 641 mmHg 40%
    21:00 +26°C° 0 mm 3 m/S 641 mmHg 44%
    22:00 +25°C° 0 mm 2 m/S 641 mmHg 48%
    23:00 +23°C° 0 mm 2 m/S 641 mmHg 52%

    25 Juli, Donnerstag

    Zeit Temperatur Niederschläge Wind Luftdruck Luftfeuchtigkeit
    00:00 +23°C° 0 mm 2 m/S 641 mmHg 54%
    01:00 +22°C° 0 mm 1 m/S 641 mmHg 57%
    02:00 +22°C° 0 mm 1 m/S 641 mmHg 59%
    03:00 +21°C° 0.2 mm 1 m/S 640 mmHg 62%
    04:00 +21°C° 0.2 mm 1 m/S 640 mmHg 65%
    05:00 +20°C° 0.2 mm 1 m/S 640 mmHg 68%
    06:00 +23°C° 0 mm 1 m/S 641 mmHg 61%
    07:00 +25°C° 0 mm 1 m/S 642 mmHg 53%
    08:00 +26°C° 0 mm 0 m/S 643 mmHg 45%
    09:00 +30°C° 0 mm 1 m/S 643 mmHg 38%
    10:00 +32°C° 0 mm 2 m/S 644 mmHg 31%
    11:00 +35°C° 0 mm 2 m/S 644 mmHg 24%
    12:00 +36°C° 0 mm 3 m/S 644 mmHg 22%
    13:00 +37°C° 0 mm 3 m/S 644 mmHg 20%
    14:00 +38°C° 0 mm 3 m/S 643 mmHg 17%
    15:00 +37°C° 0 mm 3 m/S 643 mmHg 17%
    16:00 +37°C° 0 mm 4 m/S 643 mmHg 17%
    17:00 +37°C° 0 mm 4 m/S 643 mmHg 17%
    18:00 +33°C° 0.2 mm 4 m/S 643 mmHg 30%
    19:00 +28°C° 0.2 mm 5 m/S 642 mmHg 43%
    20:00 +23°C° 0.2 mm 5 m/S 641 mmHg 56%
    21:00 +23°C° 0.2 mm 4 m/S 641 mmHg 63%
    22:00 +22°C° 0.2 mm 3 m/S 641 mmHg 70%
    23:00 +21°C° 0.2 mm 2 m/S 641 mmHg 77%

    26 Juli, Freitag

    Zeit Temperatur Niederschläge Wind Luftdruck Luftfeuchtigkeit
    00:00 +22°C° 0 mm 1 m/S 641 mmHg 77%
    01:00 +21°C° 0 mm 1 m/S 641 mmHg 77%
    02:00 +21°C° 0 mm 1 m/S 640 mmHg 78%
    03:00 +21°C° 0 mm 1 m/S 640 mmHg 76%
    04:00 +19°C° 0 mm 0 m/S 640 mmHg 74%
    05:00 +18°C° 0 mm 0 m/S 640 mmHg 73%
    06:00 +21°C° 0 mm 0 m/S 641 mmHg 64%
    07:00 +25°C° 0 mm 1 m/S 642 mmHg 55%
    08:00 +27°C° 0 mm 1 m/S 642 mmHg 46%
    09:00 +29°C° 0.1 mm 1 m/S 643 mmHg 39%
    10:00 +32°C° 0.1 mm 2 m/S 643 mmHg 33%
    11:00 +35°C° 0.1 mm 3 m/S 644 mmHg 26%
    12:00 +35°C° 0 mm 3 m/S 644 mmHg 26%
    13:00 +36°C° 0 mm 3 m/S 644 mmHg 25%
    14:00 +36°C° 0 mm 4 m/S 643 mmHg 24%
    15:00 +36°C° 0.1 mm 4 m/S 643 mmHg 25%
    16:00 +36°C° 0.1 mm 4 m/S 643 mmHg 25%
    17:00 +35°C° 0.1 mm 4 m/S 643 mmHg 26%
    18:00 +33°C° 0 mm 3 m/S 642 mmHg 33%
    19:00 +29°C° 0 mm 3 m/S 642 mmHg 39%
    20:00 +27°C° 0 mm 2 m/S 641 mmHg 46%
    21:00 +25°C° 0.1 mm 2 m/S 641 mmHg 51%
    22:00 +24°C° 0.1 mm 1 m/S 641 mmHg 56%
    23:00 +22°C° 0.1 mm 1 m/S 641 mmHg 61%
    Mehr zeigen